| time (UTC) | temp F | wind direction | speed MPH | gust MPH | rain 1hr in | rain 24hr in | rain mn in | humidity % | barometer mb |
| 20260831113516 | 75 | 315 | 8.0 | 20.0 | 0.00 | 0.79 | 0.74 | 60 | 1012.8 |
| 20260831112538 | 75 | 315 | 8.0 | 19.0 | 0.00 | 0.79 | 0.74 | 60 | 1012.7 |
| 20260831111519 | 75 | 293 | 8.0 | 19.0 | 0.00 | 0.79 | 0.74 | 63 | 1012.5 |
| 20260831110516 | 74 | 270 | 8.0 | 16.0 | 0.00 | 0.79 | 0.74 | 64 | 1012.3 |
| 20260831105516 | 73 | 315 | 8.0 | 17.0 | 0.00 | 0.79 | 0.74 | 66 | 1012.3 |
| 20260831104517 | 72 | 315 | 7.0 | 13.0 | 0.00 | 0.79 | 0.74 | 67 | 1012.1 |
| 20260831103516 | 72 | 315 | 9.0 | 19.0 | 0.00 | 0.79 | 0.74 | 67 | 1012.1 |
| 20260831102518 | 70 | 315 | 8.0 | 14.0 | 0.00 | 0.79 | 0.74 | 72 | 1012.0 |
| 20260831101518 | 69 | 315 | 6.0 | 13.0 | 0.00 | 0.79 | 0.74 | 75 | 1011.9 |
| 20260831100518 | 69 | 315 | 8.0 | 16.0 | 0.00 | 0.79 | 0.74 | 74 | 1011.9 |
| 20260831095516 | 69 | 315 | 8.0 | 16.0 | 0.00 | 0.79 | 0.74 | 73 | 1011.8 |
| 20260831094538 | 70 | 315 | 8.0 | 16.0 | 0.00 | 0.79 | 0.74 | 73 | 1011.7 |
| 20260831093518 | 70 | 315 | 6.0 | 17.0 | 0.00 | 0.79 | 0.74 | 74 | 1011.6 |
| 20260831092540 | 70 | 293 | 7.0 | 14.0 | 0.00 | 0.79 | 0.74 | 73 | 1011.5 |
| 20260831091516 | 70 | 315 | 6.0 | 13.0 | 0.00 | 0.79 | 0.74 | 75 | 1011.4 |
| 20260831090516 | 69 | 315 | 8.0 | 16.0 | 0.00 | 0.79 | 0.74 | 75 | 1011.1 |
| 20260831085516 | 68 | 315 | 8.0 | 16.0 | 0.00 | 0.79 | 0.74 | 76 | 1010.9 |
| 20260831084536 | 67 | 293 | 6.0 | 14.0 | 0.00 | 0.79 | 0.74 | 78 | 1010.8 |
| 20260831083516 | 66 | 293 | 9.0 | 16.0 | 0.00 | 0.79 | 0.74 | 81 | 1010.8 |
| 20260831082521 | 65 | 293 | 9.0 | 19.0 | 0.00 | 0.79 | 0.74 | 82 | 1010.6 |
| 20260831081516 | 64 | 315 | 9.0 | 18.0 | 0.00 | 0.79 | 0.74 | 82 | 1010.4 |
| 20260831080516 | 64 | 293 | 8.0 | 14.0 | 0.00 | 0.79 | 0.74 | 83 | 1010.3 |
| 20260831075518 | 64 | 315 | 7.0 | 14.0 | 0.00 | 0.79 | 0.74 | 84 | 1010.1 |
| 20260831074516 | 63 | 315 | 8.0 | 16.0 | 0.00 | 0.79 | 0.74 | 83 | 1010.1 |
| 20260831073516 | 63 | 315 | 6.0 | 14.0 | 0.00 | 0.79 | 0.74 | 84 | 1009.8 |
| 20260831072516 | 63 | 293 | 7.0 | 13.0 | 0.00 | 0.79 | 0.74 | 84 | 1009.7 |
| 20260831071536 | 63 | 315 | 9.0 | 17.0 | 0.00 | 0.79 | 0.74 | 84 | 1009.7 |
| 20260831070516 | 62 | 315 | 7.0 | 17.0 | 0.00 | 0.79 | 0.74 | 85 | 1009.4 |
| 20260831065516 | 62 | 315 | 6.0 | 14.0 | 0.00 | 0.79 | 0.74 | 86 | 1009.4 |
| 20260831064516 | 62 | 315 | 6.0 | 13.0 | 0.00 | 0.79 | 0.74 | 86 | 1009.1 |
| 20260831063516 | 62 | 315 | 5.0 | 12.0 | 0.00 | 0.79 | 0.74 | 87 | 1009.0 |
| 20260831062516 | 61 | 315 | 3.0 | 8.0 | 0.00 | 0.79 | 0.74 | 87 | 1008.9 |
| 20260831061518 | 61 | 315 | 5.0 | 12.0 | 0.00 | 0.79 | 0.74 | 86 | 1008.7 |
| 20260831060517 | 61 | 293 | 5.0 | 13.0 | 0.00 | 0.79 | 0.74 | 86 | 1008.6 |
| 20260831055536 | 61 | 293 | 7.0 | 17.0 | 0.00 | 0.79 | 0.74 | 86 | 1008.4 |
| 20260831054516 | 61 | 293 | 6.0 | 15.0 | 0.00 | 0.79 | 0.74 | 86 | 1008.1 |
| 20260831053517 | 61 | 270 | 6.0 | 13.0 | 0.00 | 0.79 | 0.74 | 86 | 1008.1 |
| 20260831052516 | 61 | 315 | 6.0 | 13.0 | 0.00 | 0.79 | 0.74 | 86 | 1007.9 |
| 20260831051516 | 61 | 270 | 6.0 | 13.0 | 0.00 | 0.79 | 0.74 | 87 | 1007.7 |
| 20260831050516 | 61 | 270 | 8.0 | 18.0 | 0.00 | 0.79 | 0.74 | 87 | 1007.5 |
| 20260831045516 | 61 | 270 | 7.0 | 15.0 | 0.00 | 0.79 | 0.74 | 88 | 1007.4 |
| 20260831044536 | 60 | 270 | 6.0 | 15.0 | 0.00 | 0.79 | 0.74 | 88 | 1007.2 |
| 20260831043537 | 60 | 315 | 6.0 | 13.0 | 0.00 | 0.79 | 0.74 | 88 | 1007.2 |
| 20260831042516 | 60 | 315 | 7.0 | 14.0 | 0.00 | 0.79 | 0.74 | 88 | 1007.1 |
| 20260831041536 | 60 | 293 | 5.0 | 17.0 | 0.00 | 0.79 | 0.74 | 89 | 1007.0 |
| 20260831040519 | 60 | 293 | 5.0 | 11.0 | 0.00 | 0.79 | 0.74 | 90 | 1007.1 |
| 20260831035516 | 60 | 293 | 5.0 | 15.0 | 0.00 | 0.79 | 0.74 | 90 | 1007.1 |
| 20260831034537 | 60 | 293 | 5.0 | 13.0 | 0.00 | 0.79 | 0.74 | 90 | 1007.1 |
| 20260831033516 | 60 | 315 | 6.0 | 13.0 | 0.00 | 0.79 | 0.74 | 90 | 1007.0 |
| 20260831032517 | 60 | 248 | 7.0 | 16.0 | 0.00 | 0.79 | 0.74 | 91 | 1006.8 |
| 20260831031517 | 60 | 270 | 6.0 | 13.0 | 0.00 | 0.79 | 0.74 | 91 | 1006.8 |
| 20260831030517 | 60 | 270 | 4.0 | 12.0 | 0.01 | 0.79 | 0.74 | 91 | 1006.7 |
| 20260831025515 | 60 | 315 | 5.0 | 11.0 | 0.02 | 0.79 | 0.74 | 91 | 1006.7 |
| 20260831024515 | 60 | 293 | 5.0 | 14.0 | 0.02 | 0.79 | 0.74 | 91 | 1006.5 |
| 20260831023516 | 61 | 270 | 5.0 | 14.0 | 0.02 | 0.79 | 0.74 | 91 | 1006.5 |
| 20260831022516 | 61 | 315 | 5.0 | 12.0 | 0.16 | 0.79 | 0.74 | 91 | 1006.5 |
| 20260831021515 | 61 | 293 | 3.0 | 9.0 | 0.17 | 0.79 | 0.74 | 91 | 1006.4 |
| 20260831020516 | 61 | 270 | 5.0 | 19.0 | 0.17 | 0.78 | 0.73 | 91 | 1006.4 |
| 20260831015557 | 61 | 293 | 3.0 | 8.0 | 0.15 | 0.76 | 0.72 | 91 | 1006.2 |
| 20260831014517 | 60 | 293 | 3.0 | 10.0 | 0.15 | 0.76 | 0.72 | 90 | 1006.2 |
| 20260831013517 | 61 | 248 | 5.0 | 12.0 | 0.15 | 0.76 | 0.72 | 88 | 1006.3 |
| 20260831012515 | 62 | 315 | 9.0 | 18.0 | 0.02 | 0.63 | 0.58 | 86 | 1006.6 |
| 20260831011516 | 63 | 248 | 9.0 | 17.0 | 0.00 | 0.61 | 0.57 | 88 | 1005.9 |
| 20260831010515 | 63 | 225 | 10.0 | 19.0 | 0.00 | 0.61 | 0.57 | 88 | 1005.9 |
| 20260831005535 | 63 | 248 | 10.0 | 23.0 | 0.00 | 0.61 | 0.57 | 89 | 1006.2 |
| 20260831004517 | 63 | 225 | 8.0 | 18.0 | 0.00 | 0.61 | 0.57 | 89 | 1006.0 |
| 20260831003515 | 63 | 225 | 9.0 | 17.0 | 0.06 | 0.61 | 0.57 | 89 | 1006.0 |
| 20260831002515 | 63 | 225 | 13.0 | 25.0 | 0.29 | 0.61 | 0.57 | 90 | 1005.9 |
| 20260831001515 | 63 | 225 | 12.0 | 24.0 | 0.40 | 0.61 | 0.57 | 90 | 1005.9 |
| 20260831000517 | 63 | 270 | 11.0 | 25.0 | 0.55 | 0.61 | 0.57 | 91 | 1005.9 |
| 20260830235517 | 63 | 248 | 12.0 | 23.0 | 0.57 | 0.61 | 0.57 | 91 | 1006.0 |
| 20260830234517 | 63 | 225 | 12.0 | 20.0 | 0.57 | 0.61 | 0.57 | 91 | 1005.9 |
| 20260830233515 | 62 | 248 | 7.0 | 17.0 | 0.52 | 0.56 | 0.51 | 91 | 1005.9 |
| 20260830232515 | 63 | 225 | 10.0 | 21.0 | 0.28 | 0.32 | 0.28 | 88 | 1006.1 |
| 20260830231517 | 64 | 248 | 10.0 | 20.0 | 0.17 | 0.21 | 0.17 | 87 | 1006.6 |
| 20260830230515 | 66 | 225 | 12.0 | 22.0 | 0.02 | 0.06 | 0.02 | 84 | 1006.6 |
| 20260830225515 | 66 | 225 | 12.0 | 21.0 | 0.00 | 0.04 | 0.04 | 81 | 1006.4 |
| 20260830224517 | 66 | 225 | 11.0 | 19.0 | 0.00 | 0.04 | 0.04 | 81 | 1006.6 |
| 20260830223518 | 65 | 225 | 9.0 | 20.0 | 0.00 | 0.04 | 0.04 | 81 | 1006.7 |
| 20260830222517 | 65 | 225 | 11.0 | 24.0 | 0.00 | 0.04 | 0.04 | 80 | 1007.1 |
| 20260830221537 | 65 | 248 | 13.0 | 21.0 | 0.00 | 0.04 | 0.04 | 80 | 1007.1 |
| 20260830220517 | 65 | 225 | 7.0 | 14.0 | 0.00 | 0.04 | 0.04 | 81 | 1007.1 |
| 20260830215517 | 65 | 248 | 10.0 | 19.0 | 0.00 | 0.04 | 0.04 | 80 | 1007.2 |
| 20260830214517 | 65 | 225 | 11.0 | 25.0 | 0.00 | 0.04 | 0.04 | 81 | 1007.3 |
| 20260830213517 | 65 | 248 | 9.0 | 17.0 | 0.00 | 0.04 | 0.04 | 82 | 1007.3 |
| 20260830212518 | 65 | 248 | 7.0 | 14.0 | 0.00 | 0.04 | 0.04 | 83 | 1007.2 |
| 20260830211517 | 65 | 225 | 7.0 | 13.0 | 0.00 | 0.04 | 0.04 | 83 | 1007.4 |
| 20260830210518 | 65 | 225 | 8.0 | 22.0 | 0.00 | 0.04 | 0.04 | 83 | 1007.5 |
| 20260830205519 | 65 | 225 | 8.0 | 13.0 | 0.00 | 0.04 | 0.04 | 83 | 1007.4 |
| 20260830204517 | 64 | 248 | 6.0 | 13.0 | 0.00 | 0.04 | 0.04 | 82 | 1007.5 |
| 20260830203517 | 64 | 225 | 8.0 | 21.0 | 0.01 | 0.04 | 0.04 | 82 | 1007.5 |
| 20260830202519 | 65 | 225 | 9.0 | 18.0 | 0.04 | 0.04 | 0.04 | 83 | 1007.5 |
| 20260830201518 | 65 | 225 | 8.0 | 19.0 | 0.04 | 0.04 | 0.04 | 83 | 1007.4 |
| 20260830200517 | 65 | 225 | 11.0 | 26.0 | 0.04 | 0.05 | 0.04 | 83 | 1007.3 |
| 20260830195518 | 66 | 225 | 12.0 | 22.0 | 0.04 | 0.05 | 0.04 | 84 | 1007.2 |
| 20260830194517 | 66 | 225 | 10.0 | 21.0 | 0.04 | 0.05 | 0.04 | 85 | 1007.1 |
| 20260830193517 | 68 | 225 | 15.0 | 24.0 | 0.03 | 0.04 | 0.03 | 78 | 1007.3 |
| 20260830192517 | 68 | 203 | 12.0 | 25.0 | 0.00 | 0.01 | 0.00 | 76 | 1007.3 |
| 20260830191517 | 68 | 203 | 9.0 | 16.0 | 0.00 | 0.01 | 0.00 | 78 | 1007.1 |
| 20260830190517 | 68 | 203 | 8.0 | 14.0 | 0.00 | 0.01 | 0.00 | 77 | 1007.2 |
| 20260830185517 | 68 | 248 | 7.0 | 15.0 | 0.00 | 0.01 | 0.00 | 77 | 1007.2 |
| 20260830184517 | 68 | 225 | 5.0 | 11.0 | 0.00 | 0.01 | 0.00 | 77 | 1007.3 |
| 20260830183517 | 68 | 225 | 4.0 | 10.0 | 0.00 | 0.01 | 0.00 | 77 | 1007.4 |
| 20260830182517 | 68 | 203 | 5.0 | 12.0 | 0.00 | 0.01 | 0.00 | 76 | 1007.5 |
| 20260830181517 | 68 | 225 | 4.0 | 13.0 | 0.00 | 0.01 | 0.00 | 76 | 1007.6 |
| 20260830180517 | 68 | 225 | 4.0 | 7.0 | 0.00 | 0.01 | 0.00 | 75 | 1007.7 |
| 20260830175538 | 68 | 203 | 5.0 | 10.0 | 0.00 | 0.01 | 0.00 | 75 | 1007.7 |
| 20260830174518 | 68 | 203 | 6.0 | 13.0 | 0.00 | 0.01 | 0.00 | 76 | 1007.8 |
| 20260830173518 | 68 | 248 | 7.0 | 15.0 | 0.00 | 0.01 | 0.00 | 78 | 1008.1 |
| 20260830172517 | 69 | 225 | 8.0 | 15.0 | 0.00 | 0.01 | 0.00 | 78 | 1008.2 |
| 20260830171519 | 69 | 225 | 6.0 | 10.0 | 0.00 | 0.01 | 0.00 | 77 | 1008.1 |
| 20260830170517 | 69 | 248 | 8.0 | 18.0 | 0.00 | 0.01 | 0.00 | 76 | 1008.2 |
| 20260830165517 | 69 | 225 | 10.0 | 15.0 | 0.00 | 0.01 | 0.00 | 75 | 1008.3 |
| 20260830164516 | 69 | 225 | 7.0 | 16.0 | 0.00 | 0.01 | 0.00 | 75 | 1008.2 |
| 20260830163517 | 69 | 225 | 8.0 | 16.0 | 0.00 | 0.01 | 0.00 | 75 | 1008.3 |
| 20260830162516 | 70 | 225 | 9.0 | 19.0 | 0.00 | 0.01 | 0.00 | 73 | 1008.5 |
| 20260830161517 | 71 | 225 | 10.0 | 18.0 | 0.00 | 0.01 | 0.00 | 72 | 1008.6 |
| 20260830160518 | 71 | 225 | 9.0 | 22.0 | 0.00 | 0.01 | 0.00 | 72 | 1008.6 |
| 20260830155518 | 71 | 225 | 9.0 | 17.0 | 0.00 | 0.01 | 0.00 | 74 | 1008.7 |
| 20260830154517 | 70 | 225 | 9.0 | 16.0 | 0.00 | 0.01 | 0.00 | 75 | 1008.8 |
| 20260830153518 | 71 | 225 | 10.0 | 19.0 | 0.00 | 0.01 | 0.00 | 72 | 1008.9 |
| 20260830152516 | 71 | 225 | 10.0 | 21.0 | 0.00 | 0.01 | 0.00 | 72 | 1008.9 |
| 20260830151518 | 71 | 248 | 11.0 | 19.0 | 0.00 | 0.01 | 0.00 | 74 | 1008.9 |
| 20260830150516 | 72 | 248 | 10.0 | 21.0 | 0.00 | 0.01 | 0.00 | 73 | 1009.1 |
| 20260830145518 | 72 | 225 | 10.0 | 18.0 | 0.00 | 0.01 | 0.00 | 74 | 1009.2 |
| 20260830144516 | 72 | 225 | 9.0 | 18.0 | 0.00 | 0.01 | 0.00 | 73 | 1009.2 |
| 20260830143516 | 72 | 225 | 10.0 | 17.0 | 0.00 | 0.01 | 0.00 | 74 | 1009.4 |
| 20260830142516 | 72 | 225 | 9.0 | 17.0 | 0.00 | 0.01 | 0.00 | 75 | 1009.3 |
| 20260830141516 | 72 | 225 | 10.0 | 18.0 | 0.00 | 0.01 | 0.00 | 73 | 1009.3 |
| 20260830140517 | 72 | 248 | 10.0 | 20.0 | 0.00 | 0.01 | 0.00 | 72 | 1009.4 |
| 20260830135516 | 72 | 225 | 9.0 | 21.0 | 0.00 | 0.01 | 0.00 | 72 | 1009.4 |
| 20260830134518 | 72 | 225 | 10.0 | 18.0 | 0.00 | 0.01 | 0.00 | 74 | 1009.6 |
| 20260830133516 | 72 | 225 | 9.0 | 18.0 | 0.00 | 0.02 | 0.00 | 75 | 1009.7 |
| 20260830132556 | 71 | 248 | 8.0 | 16.0 | 0.00 | 0.02 | 0.00 | 76 | 1009.8 |
| 20260830131538 | 71 | 225 | 9.0 | 15.0 | 0.00 | 0.02 | 0.00 | 75 | 1009.9 |
| 20260830130516 | 71 | 225 | 9.0 | 19.0 | 0.00 | 0.03 | 0.00 | 74 | 1009.8 |
| 20260830125516 | 71 | 225 | 10.0 | 21.0 | 0.00 | 0.09 | 0.00 | 74 | 1009.9 |
| 20260830124518 | 71 | 225 | 10.0 | 17.0 | 0.00 | 0.09 | 0.00 | 75 | 1009.9 |
| 20260830123516 | 71 | 248 | 9.0 | 17.0 | 0.00 | 0.09 | 0.00 | 75 | 1009.9 |
| 20260830122516 | 71 | 248 | 7.0 | 11.0 | 0.00 | 0.09 | 0.00 | 75 | 1010.0 |
| 20260830121558 | 71 | 248 | 9.0 | 18.0 | 0.00 | 0.09 | 0.00 | 76 | 1010.0 |
| 20260830120539 | 70 | 248 | 9.0 | 17.0 | 0.00 | 0.09 | 0.00 | 78 | 1010.0 |
| 20260830115518 | 70 | 225 | 10.0 | 18.0 | 0.00 | 0.09 | 0.00 | 77 | 1010.1 |
| 20260830114516 | 70 | 248 | 9.0 | 16.0 | 0.00 | 0.09 | 0.00 | 78 | 1010.0 |